Zurück zum Katalog

FENGYUN 1A

AktivWetterSSO
NORAD 19467·PAYLOAD·🇨🇳 China

Gestartet Sep 6, 1988 von Taiyuan Satellite Launch Center

Loading…

Nächste Überflüge (nächste 24 Stunden)

TLE

AktuellSource: Space-Track

Epoche: Sep 14, 2026, 02:41 UTC

1 19467U 88080A   26257.11231402 -.00000216  00000-0 -10967-3 0  9994
2 19467  99.0167 309.7310 0015279  96.6811 263.6095 14.03552722946370

Verfolge FENGYUN 1A in Echtzeit mit AllMySat

Download on the App Store